Time,TemperatureF,DewpointF,PressureIn,WindDirection,WindDirectionDegrees,WindSpeedMPH,WindSpeedGustMPH,Humidity,HourlyPrecipIn,Conditions,Clouds,dailyrainin,SoftwareType,DateUTC
2013-01-18 00:03:00,23.2,11.4,30.04,NNW,346,2.0,2.0,60,0.00,,,0.00,LWC V2.10 B1813,2013-01-18 05:03:00,
2013-01-18 00:08:00,23.1,10.2,30.05,NW,324,2.0,6.0,57,0.00,,,0.00,LWC V2.10 B1813,2013-01-18 05:08:00,
2013-01-18 00:13:00,23.0,10.5,30.06,WNW,297,0.0,2.0,58,0.00,,,0.00,LWC V2.10 B1813,2013-01-18 05:13:00,
2013-01-18 00:18:00,23.0,10.8,30.07,WNW,289,2.0,2.0,59,0.00,,,0.00,LWC V2.10 B1813,2013-01-18 05:18:00,
2013-01-18 00:23:00,22.9,10.7,30.08,NW,313,0.0,3.0,59,0.00,,,0.00,LWC V2.10 B1813,2013-01-18 05:23:00,
2013-01-18 00:28:00,22.7,9.8,30.07,North,352,3.0,5.0,57,0.00,,,0.00,LWC V2.10 B1813,2013-01-18 05:28:00,
2013-01-18 00:33:00,22.5,9.2,30.07,ENE,63,1.0,5.0,56,0.00,,,0.00,LWC V2.10 B1813,2013-01-18 05:33:00,
2013-01-18 00:38:00,22.3,8.6,30.08,NNE,14,2.0,3.0,55,0.00,,,0.00,LWC V2.10 B1813,2013-01-18 05:38:00,
2013-01-18 00:43:00,22.1,8.0,30.09,NE,44,3.0,4.0,54,0.00,,,0.00,LWC V2.10 B1813,2013-01-18 05:43:00,
2013-01-18 00:48:00,22.0,8.7,30.07,North,353,2.0,5.0,56,0.00,,,0.00,LWC V2.10 B1813,2013-01-18 05:48:00,
2013-01-18 00:53:00,21.7,8.8,30.07,North,10,1.0,3.0,57,0.00,,,0.00,LWC V2.10 B1813,2013-01-18 05:53:00,
2013-01-18 00:58:00,21.6,7.6,30.06,NE,46,3.0,3.0,54,0.00,,,0.00,LWC V2.10 B1813,2013-01-18 05:58:00,
2013-01-18 01:03:00,21.4,6.5,30.06,NNW,343,3.0,4.0,52,0.00,,,0.00,LWC V2.10 B1813,2013-01-18 06:03:00,
2013-01-18 01:08:00,21.2,6.4,30.07,NNW,334,5.0,7.0,52,0.00,,,0.00,LWC V2.10 B1813,2013-01-18 06:08:00,
2013-01-18 01:13:00,21.0,5.3,30.07,NNW,341,1.0,3.0,50,0.00,,,0.00,LWC V2.10 B1813,2013-01-18 06:13:00,
2013-01-18 01:18:00,20.8,3.8,30.06,NNW,348,3.0,4.0,47,0.00,,,0.00,LWC V2.10 B1813,2013-01-18 06:18:00,
2013-01-18 01:23:00,20.6,2.7,30.07,WNW,293,1.0,3.0,45,0.00,,,0.00,LWC V2.10 B1813,2013-01-18 06:23:00,
2013-01-18 01:28:00,20.5,3.5,30.07,NW,313,6.0,7.0,47,0.00,,,0.00,LWC V2.10 B1813,2013-01-18 06:28:00,
2013-01-18 01:33:00,20.3,1.9,30.05,NNE,33,0.0,2.0,44,0.00,,,0.00,LWC V2.10 B1813,2013-01-18 06:33:00,
2013-01-18 01:38:00,20.2,1.3,30.07,ENE,57,3.0,5.0,43,0.00,,,0.00,LWC V2.10 B1813,2013-01-18 06:38:00,
2013-01-18 01:43:00,20.0,2.1,30.06,NNE,15,5.0,5.0,45,0.00,,,0.00,LWC V2.10 B1813,2013-01-18 06:43:00,
2013-01-18 01:48:00,19.9,2.5,30.08,NNW,330,0.0,2.0,46,0.00,,,0.00,LWC V2.10 B1813,2013-01-18 06:48:00,
2013-01-18 01:53:00,19.8,2.9,30.09,NNW,339,4.0,4.0,47,0.00,,,0.00,LWC V2.10 B1813,2013-01-18 06:53:00,
2013-01-18 01:58:00,19.6,2.2,30.10,NNW,336,2.0,4.0,46,0.00,,,0.00,LWC V2.10 B1813,2013-01-18 06:58:00,
2013-01-18 02:03:00,19.4,2.0,30.12,NW,310,4.0,7.0,46,0.00,,,0.00,LWC V2.10 B1813,2013-01-18 07:03:00,
2013-01-18 02:08:00,19.2,2.8,30.12,NNW,331,3.0,3.0,48,0.00,,,0.00,LWC V2.10 B1813,2013-01-18 07:08:00,
2013-01-18 02:13:00,19.0,0.7,30.11,WNW,286,3.0,9.0,44,0.00,,,0.00,LWC V2.10 B1813,2013-01-18 07:13:00,
2013-01-18 02:18:00,18.7,0.0,30.11,West,276,3.0,6.0,43,0.00,,,0.00,LWC V2.10 B1813,2013-01-18 07:18:00,
2013-01-18 02:23:00,18.5,0.7,30.11,NW,320,3.0,6.0,45,0.00,,,0.00,LWC V2.10 B1813,2013-01-18 07:23:00,
2013-01-18 02:28:00,18.3,0.1,30.12,NNW,347,2.0,7.0,44,0.00,,,0.00,LWC V2.10 B1813,2013-01-18 07:28:00,
2013-01-18 02:33:00,18.2,0.9,30.13,WNW,297,3.0,7.0,46,0.00,,,0.00,LWC V2.10 B1813,2013-01-18 07:33:00,
2013-01-18 02:38:00,18.1,1.3,30.12,NE,38,2.0,4.0,47,0.00,,,0.00,LWC V2.10 B1813,2013-01-18 07:38:00,
2013-01-18 02:43:00,17.9,0.7,30.12,NW,322,3.0,6.0,46,0.00,,,0.00,LWC V2.10 B1813,2013-01-18 07:43:00,
2013-01-18 02:48:00,17.8,0.6,30.13,NNW,343,7.0,9.0,46,0.00,,,0.00,LWC V2.10 B1813,2013-01-18 07:48:00,
2013-01-18 02:53:00,17.7,1.4,30.14,NW,308,1.0,5.0,48,0.00,,,0.00,LWC V2.10 B1813,2013-01-18 07:53:00,
2013-01-18 02:58:00,17.6,1.3,30.13,NNW,348,3.0,6.0,48,0.00,,,0.00,LWC V2.10 B1813,2013-01-18 07:58:00,
2013-01-18 03:03:00,17.5,1.6,30.13,North,0,0.0,2.0,49,0.00,,,0.00,LWC V2.10 B1813,2013-01-18 08:03:00,
2013-01-18 03:08:00,17.3,1.9,30.12,NNW,327,2.0,2.0,50,0.00,,,0.00,LWC V2.10 B1813,2013-01-18 08:08:00,
2013-01-18 03:13:00,17.2,1.8,30.12,North,355,0.0,5.0,50,0.00,,,0.00,LWC V2.10 B1813,2013-01-18 08:13:00,
2013-01-18 03:18:00,17.0,1.2,30.12,WNW,283,7.0,7.0,49,0.00,,,0.00,LWC V2.10 B1813,2013-01-18 08:18:00,
2013-01-18 03:23:00,16.9,1.5,30.13,NW,324,3.0,6.0,50,0.00,,,0.00,LWC V2.10 B1813,2013-01-18 08:23:00,
2013-01-18 03:28:00,16.8,1.4,30.12,NW,304,3.0,6.0,50,0.00,,,0.00,LWC V2.10 B1813,2013-01-18 08:28:00,
2013-01-18 03:33:00,16.7,1.8,30.12,NW,305,4.0,4.0,51,0.00,,,0.00,LWC V2.10 B1813,2013-01-18 08:33:00,
2013-01-18 03:38:00,16.6,1.7,30.13,NNW,346,5.0,7.0,51,0.00,,,0.00,LWC V2.10 B1813,2013-01-18 08:38:00,
2013-01-18 03:43:00,16.4,1.9,30.12,NE,45,4.0,6.0,52,0.00,,,0.00,LWC V2.10 B1813,2013-01-18 08:43:00,
2013-01-18 03:48:00,16.4,2.3,30.12,NNW,346,3.0,4.0,53,0.00,,,0.00,LWC V2.10 B1813,2013-01-18 08:48:00,
2013-01-18 03:53:00,16.2,1.7,30.12,NNW,345,2.0,3.0,52,0.00,,,0.00,LWC V2.10 B1813,2013-01-18 08:53:00,
2013-01-18 03:58:00,16.2,1.7,30.13,WNW,303,2.0,6.0,52,0.00,,,0.00,LWC V2.10 B1813,2013-01-18 08:58:00,
2013-01-18 04:03:00,16.1,2.4,30.13,NNE,17,1.0,2.0,54,0.00,,,0.00,LWC V2.10 B1813,2013-01-18 09:03:00,
2013-01-18 04:08:00,16.0,3.1,30.12,NNE,18,0.0,1.0,56,0.00,,,0.00,LWC V2.10 B1813,2013-01-18 09:08:00,
2013-01-18 04:13:00,15.9,3.4,30.13,North,359,2.0,3.0,57,0.00,,,0.00,LWC V2.10 B1813,2013-01-18 09:13:00,
2013-01-18 04:18:00,15.8,3.3,30.14,NNW,327,2.0,6.0,57,0.00,,,0.00,LWC V2.10 B1813,2013-01-18 09:18:00,
2013-01-18 04:23:00,15.6,3.5,30.13,NNE,26,1.0,2.0,58,0.00,,,0.00,LWC V2.10 B1813,2013-01-18 09:23:00,
2013-01-18 04:28:00,15.5,3.4,30.14,NNW,328,4.0,6.0,58,0.00,,,0.00,LWC V2.10 B1813,2013-01-18 09:28:00,
2013-01-18 04:33:00,15.2,4.2,30.14,NW,322,3.0,6.0,61,0.00,,,0.00,LWC V2.10 B1813,2013-01-18 09:33:00,
2013-01-18 04:38:00,15.1,4.1,30.15,NW,320,1.0,4.0,61,0.00,,,0.00,LWC V2.10 B1813,2013-01-18 09:38:00,
2013-01-18 04:43:00,15.0,4.0,30.15,NNW,345,1.0,3.0,61,0.00,,,0.00,LWC V2.10 B1813,2013-01-18 09:43:00,
2013-01-18 04:48:00,14.9,3.2,30.16,WNW,301,1.0,3.0,59,0.00,,,0.00,LWC V2.10 B1813,2013-01-18 09:48:00,
2013-01-18 04:53:00,14.8,3.8,30.16,North,7,2.0,4.0,61,0.00,,,0.00,LWC V2.10 B1813,2013-01-18 09:53:00,
2013-01-18 04:58:00,14.7,3.0,30.16,NNW,334,4.0,5.0,59,0.00,,,0.00,LWC V2.10 B1813,2013-01-18 09:58:00,
2013-01-18 05:03:00,14.6,2.5,30.16,NW,320,2.0,4.0,58,0.00,,,0.00,LWC V2.10 B1813,2013-01-18 10:03:00,
2013-01-18 05:08:00,14.4,2.7,30.17,NNW,343,5.0,5.0,59,0.00,,,0.00,LWC V2.10 B1813,2013-01-18 10:08:00,
2013-01-18 05:13:00,14.3,2.3,30.17,NNW,345,2.0,2.0,58,0.00,,,0.00,LWC V2.10 B1813,2013-01-18 10:13:00,
2013-01-18 05:18:00,14.1,2.4,30.17,NW,304,1.0,4.0,59,0.00,,,0.00,LWC V2.10 B1813,2013-01-18 10:18:00,
2013-01-18 05:23:00,13.9,2.6,30.17,North,353,1.0,1.0,60,0.00,,,0.00,LWC V2.10 B1813,2013-01-18 10:23:00,
2013-01-18 05:28:00,13.7,2.4,30.17,NW,320,2.0,4.0,60,0.00,,,0.00,LWC V2.10 B1813,2013-01-18 10:28:00,
2013-01-18 05:33:00,13.5,2.6,30.17,NW,313,2.0,3.0,61,0.00,,,0.00,LWC V2.10 B1813,2013-01-18 10:33:00,
2013-01-18 05:38:00,13.3,2.7,30.17,NNW,335,2.0,3.0,62,0.00,,,0.00,LWC V2.10 B1813,2013-01-18 10:38:00,
2013-01-18 05:43:00,13.1,2.9,30.17,NW,314,2.0,3.0,63,0.00,,,0.00,LWC V2.10 B1813,2013-01-18 10:43:00,
2013-01-18 05:48:00,13.0,3.5,30.18,NNW,342,1.0,2.0,65,0.00,,,0.00,LWC V2.10 B1813,2013-01-18 10:48:00,
2013-01-18 05:53:00,12.8,3.0,30.18,NW,316,2.0,2.0,64,0.00,,,0.00,LWC V2.10 B1813,2013-01-18 10:53:00,
2013-01-18 05:58:00,12.6,3.4,30.18,WNW,296,3.0,5.0,66,0.00,,,0.00,LWC V2.10 B1813,2013-01-18 10:58:00,
2013-01-18 06:03:00,12.6,3.4,30.19,NW,320,3.0,3.0,66,0.00,,,0.00,LWC V2.10 B1813,2013-01-18 11:03:00,
2013-01-18 06:08:00,12.5,3.7,30.19,WNW,288,0.0,3.0,67,0.00,,,0.00,LWC V2.10 B1813,2013-01-18 11:08:00,
2013-01-18 06:13:00,12.3,3.5,30.20,NW,310,0.0,5.0,67,0.00,,,0.00,LWC V2.10 B1813,2013-01-18 11:13:00,
2013-01-18 06:18:00,12.1,3.6,30.21,NW,310,1.0,1.0,68,0.00,,,0.00,LWC V2.10 B1813,2013-01-18 11:18:00,
2013-01-18 06:23:00,11.9,4.0,30.21,WNW,291,0.0,2.0,70,0.00,,,0.00,LWC V2.10 B1813,2013-01-18 11:23:00,
2013-01-18 06:28:00,11.7,3.8,30.21,North,354,1.0,2.0,70,0.00,,,0.00,LWC V2.10 B1813,2013-01-18 11:28:00,
2013-01-18 06:33:00,11.6,4.0,30.22,WNW,284,1.0,2.0,71,0.00,,,0.00,LWC V2.10 B1813,2013-01-18 11:33:00,
2013-01-18 06:38:00,11.4,3.9,30.22,WNW,287,2.0,2.0,71,0.00,,,0.00,LWC V2.10 B1813,2013-01-18 11:38:00,
2013-01-18 06:43:00,11.2,3.7,30.23,NW,325,1.0,1.0,71,0.00,,,0.00,LWC V2.10 B1813,2013-01-18 11:43:00,
2013-01-18 06:48:00,11.0,3.5,30.23,NW,322,1.0,2.0,71,0.00,,,0.00,LWC V2.10 B1813,2013-01-18 11:48:00,
2013-01-18 06:53:00,10.9,3.4,30.24,NW,320,1.0,2.0,71,0.00,,,0.00,LWC V2.10 B1813,2013-01-18 11:53:00,
2013-01-18 06:58:00,10.9,4.0,30.24,NW,318,2.0,3.0,73,0.00,,,0.00,LWC V2.10 B1813,2013-01-18 11:58:00,
2013-01-18 07:03:00,10.7,2.9,30.24,NW,308,2.0,3.0,70,0.00,,,0.00,LWC V2.10 B1813,2013-01-18 12:03:00,
2013-01-18 07:08:00,10.7,2.6,30.25,North,352,1.0,2.0,69,0.00,,,0.00,LWC V2.10 B1813,2013-01-18 12:08:00,
2013-01-18 07:13:00,10.5,2.4,30.25,NNW,341,1.0,2.0,69,0.00,,,0.00,LWC V2.10 B1813,2013-01-18 12:13:00,
2013-01-18 07:18:00,10.4,2.3,30.25,NW,307,0.0,3.0,69,0.00,,,0.00,LWC V2.10 B1813,2013-01-18 12:18:00,
2013-01-18 07:23:00,10.2,2.4,30.25,WNW,297,0.0,1.0,70,0.00,,,0.00,LWC V2.10 B1813,2013-01-18 12:23:00,
2013-01-18 07:28:00,10.2,2.7,30.26,NW,315,1.0,1.0,71,0.00,,,0.00,LWC V2.10 B1813,2013-01-18 12:28:00,
2013-01-18 07:33:00,10.1,2.6,30.26,NNW,331,0.0,2.0,71,0.00,,,0.00,LWC V2.10 B1813,2013-01-18 12:33:00,
2013-01-18 07:38:00,10.1,2.6,30.26,NNW,334,0.0,1.0,71,0.00,,,0.00,LWC V2.10 B1813,2013-01-18 12:38:00,
2013-01-18 07:43:00,10.2,2.7,30.27,NW,313,0.0,0.0,71,0.00,,,0.00,LWC V2.10 B1813,2013-01-18 12:43:00,
2013-01-18 07:48:00,10.4,2.6,30.27,NW,313,1.0,1.0,70,0.00,,,0.00,LWC V2.10 B1813,2013-01-18 12:48:00,
2013-01-18 07:53:00,10.6,2.8,30.27,NW,311,1.0,2.0,70,0.00,,,0.00,LWC V2.10 B1813,2013-01-18 12:53:00,
2013-01-18 07:58:00,10.9,2.4,30.28,NNW,341,0.0,1.0,68,0.00,,,0.00,LWC V2.10 B1813,2013-01-18 12:58:00,
2013-01-18 08:03:00,11.2,2.4,30.28,ENE,63,1.0,2.0,67,0.00,,,0.00,LWC V2.10 B1813,2013-01-18 13:03:00,
2013-01-18 08:08:00,11.5,2.1,30.28,NW,320,1.0,1.0,65,0.00,,,0.00,LWC V2.10 B1813,2013-01-18 13:08:00,
2013-01-18 08:13:00,11.7,1.6,30.28,North,357,1.0,3.0,63,0.00,,,0.00,LWC V2.10 B1813,2013-01-18 13:13:00,
2013-01-18 08:18:00,11.9,1.8,30.29,NNW,339,2.0,3.0,63,0.00,,,0.00,LWC V2.10 B1813,2013-01-18 13:18:00,
2013-01-18 08:23:00,12.1,1.3,30.29,NE,48,0.0,2.0,61,0.00,,,0.00,LWC V2.10 B1813,2013-01-18 13:23:00,
2013-01-18 08:28:00,12.4,1.2,30.30,NE,35,2.0,4.0,60,0.00,,,0.00,LWC V2.10 B1813,2013-01-18 13:28:00,
2013-01-18 08:33:00,12.6,1.0,30.30,North,11,2.0,4.0,59,0.00,,,0.00,LWC V2.10 B1813,2013-01-18 13:33:00,
2013-01-18 08:38:00,12.7,0.8,30.30,West,272,1.0,4.0,58,0.00,,,0.00,LWC V2.10 B1813,2013-01-18 13:38:00,
2013-01-18 08:43:00,12.9,0.6,30.30,NNE,17,4.0,5.0,57,0.00,,,0.00,LWC V2.10 B1813,2013-01-18 13:43:00,
2013-01-18 08:48:00,13.0,-0.1,30.30,NNW,342,3.0,6.0,55,0.00,,,0.00,LWC V2.10 B1813,2013-01-18 13:48:00,
2013-01-18 08:53:00,13.3,0.6,30.31,West,270,4.0,4.0,56,0.00,,,0.00,LWC V2.10 B1813,2013-01-18 13:53:00,
2013-01-18 08:58:00,13.6,0.5,30.31,NW,304,6.0,6.0,55,0.00,,,0.00,LWC V2.10 B1813,2013-01-18 13:58:00,
2013-01-18 09:03:00,13.5,-0.4,30.31,NW,318,6.0,8.0,53,0.00,,,0.00,LWC V2.10 B1813,2013-01-18 14:03:00,
2013-01-18 09:08:00,13.4,-0.1,30.31,South,178,1.0,3.0,54,0.00,,,0.00,LWC V2.10 B1813,2013-01-18 14:08:00,
2013-01-18 09:13:00,13.6,0.1,30.31,North,5,2.0,7.0,54,0.00,,,0.00,LWC V2.10 B1813,2013-01-18 14:13:00,
2013-01-18 09:18:00,13.7,-0.2,30.32,WNW,295,5.0,10.0,53,0.00,,,0.00,LWC V2.10 B1813,2013-01-18 14:18:00,
2013-01-18 09:23:00,13.8,0.3,30.32,NE,42,1.0,3.0,54,0.00,,,0.00,LWC V2.10 B1813,2013-01-18 14:23:00,
2013-01-18 09:28:00,14.1,-0.3,30.32,North,10,3.0,7.0,52,0.00,,,0.00,LWC V2.10 B1813,2013-01-18 14:28:00,
2013-01-18 09:33:00,14.2,-0.6,30.32,NNW,329,2.0,4.0,51,0.00,,,0.00,LWC V2.10 B1813,2013-01-18 14:33:00,
2013-01-18 09:43:00,14.7,0.3,30.32,East,83,0.0,2.0,52,0.00,,,0.00,LWC V2.10 B1813,2013-01-18 14:43:00,
2013-01-18 09:48:00,15.2,0.4,30.32,NW,320,1.0,2.0,51,0.00,,,0.00,LWC V2.10 B1813,2013-01-18 14:48:00,
2013-01-18 09:53:00,15.6,0.3,30.32,WNW,293,4.0,6.0,50,0.00,,,0.00,LWC V2.10 B1813,2013-01-18 14:53:00,
2013-01-18 09:58:00,15.4,-0.3,30.33,WNW,296,3.0,7.0,49,0.00,,,0.00,LWC V2.10 B1813,2013-01-18 14:58:00,
2013-01-18 10:03:00,15.4,-0.3,30.32,NE,43,0.0,3.0,49,0.00,,,0.00,LWC V2.10 B1813,2013-01-18 15:03:00,
2013-01-18 10:08:00,15.5,-0.2,30.33,WNW,287,3.0,5.0,49,0.00,,,0.00,LWC V2.10 B1813,2013-01-18 15:08:00,
2013-01-18 10:13:00,15.7,0.0,30.33,West,276,5.0,5.0,49,0.00,,,0.00,LWC V2.10 B1813,2013-01-18 15:13:00,
2013-01-18 10:18:00,15.8,0.1,30.33,East,83,3.0,4.0,49,0.00,,,0.00,LWC V2.10 B1813,2013-01-18 15:18:00,
2013-01-18 10:23:00,16.1,0.8,30.33,ENE,69,2.0,4.0,50,0.00,,,0.00,LWC V2.10 B1813,2013-01-18 15:23:00,
2013-01-18 10:28:00,16.6,1.2,30.33,ENE,73,4.0,4.0,50,0.00,,,0.00,LWC V2.10 B1813,2013-01-18 15:28:00,
2013-01-18 10:33:00,16.8,0.6,30.33,NNE,28,2.0,4.0,48,0.00,,,0.00,LWC V2.10 B1813,2013-01-18 15:33:00,
2013-01-18 10:38:00,16.8,0.1,30.33,NW,320,3.0,6.0,47,0.00,,,0.00,LWC V2.10 B1813,2013-01-18 15:38:00,
2013-01-18 10:43:00,17.2,0.5,30.32,NW,310,3.0,3.0,47,0.00,,,0.00,LWC V2.10 B1813,2013-01-18 15:43:00,
2013-01-18 10:48:00,17.4,-0.3,30.32,NNW,344,3.0,12.0,45,0.00,,,0.00,LWC V2.10 B1813,2013-01-18 15:48:00,
2013-01-18 10:53:00,17.1,-1.0,30.32,SW,220,2.0,7.0,44,0.00,,,0.00,LWC V2.10 B1813,2013-01-18 15:53:00,
2013-01-18 10:58:00,17.1,-0.5,30.32,NNW,346,1.0,7.0,45,0.00,,,0.00,LWC V2.10 B1813,2013-01-18 15:58:00,
2013-01-18 11:03:00,17.3,-0.4,30.32,NW,311,8.0,11.0,45,0.00,,,0.00,LWC V2.10 B1813,2013-01-18 16:03:00,
2013-01-18 11:08:00,17.6,-0.1,30.32,ENE,63,4.0,12.0,45,0.00,,,0.00,LWC V2.10 B1813,2013-01-18 16:08:00,
2013-01-18 11:13:00,17.8,-0.9,30.32,WNW,298,5.0,14.0,43,0.00,,,0.00,LWC V2.10 B1813,2013-01-18 16:13:00,
2013-01-18 11:18:00,17.7,-1.0,30.31,NE,56,1.0,7.0,43,0.00,,,0.00,LWC V2.10 B1813,2013-01-18 16:18:00,
2013-01-18 11:23:00,17.9,-0.8,30.31,NW,318,9.0,9.0,43,0.00,,,0.00,LWC V2.10 B1813,2013-01-18 16:23:00,
2013-01-18 11:28:00,18.2,-1.0,30.31,NNE,14,1.0,8.0,42,0.00,,,0.00,LWC V2.10 B1813,2013-01-18 16:28:00,
2013-01-18 11:33:00,18.6,-0.6,30.31,WSW,242,5.0,11.0,42,0.00,,,0.00,LWC V2.10 B1813,2013-01-18 16:33:00,
2013-01-18 11:38:00,18.9,0.6,30.31,NNE,20,7.0,7.0,44,0.00,,,0.00,LWC V2.10 B1813,2013-01-18 16:38:00,
2013-01-18 11:43:00,19.5,0.2,30.31,NNW,338,6.0,7.0,42,0.00,,,0.00,LWC V2.10 B1813,2013-01-18 16:43:00,
2013-01-18 11:48:00,19.7,1.4,30.31,WNW,294,7.0,8.0,44,0.00,,,0.00,LWC V2.10 B1813,2013-01-18 16:48:00,
2013-01-18 11:53:00,19.6,0.3,30.31,NNW,328,5.0,9.0,42,0.00,,,0.00,LWC V2.10 B1813,2013-01-18 16:53:00,
2013-01-18 11:58:00,19.7,1.8,30.31,NW,315,6.0,7.0,45,0.00,,,0.00,LWC V2.10 B1813,2013-01-18 16:58:00,
2013-01-18 12:03:00,19.7,-0.7,30.31,WNW,293,3.0,8.0,40,0.00,,,0.00,LWC V2.10 B1813,2013-01-18 17:03:00,
2013-01-18 12:08:00,19.9,1.1,30.31,NE,51,2.0,13.0,43,0.00,,,0.00,LWC V2.10 B1813,2013-01-18 17:08:00,
2013-01-18 12:13:00,19.9,0.0,30.31,NNW,343,4.0,6.0,41,0.00,,,0.00,LWC V2.10 B1813,2013-01-18 17:13:00,
2013-01-18 12:18:00,20.3,1.4,30.31,NNE,13,7.0,7.0,43,0.00,,,0.00,LWC V2.10 B1813,2013-01-18 17:18:00,
2013-01-18 12:23:00,20.2,0.3,30.31,ENE,57,5.0,11.0,41,0.00,,,0.00,LWC V2.10 B1813,2013-01-18 17:23:00,
2013-01-18 12:28:00,20.1,-0.3,30.31,NW,324,2.0,9.0,40,0.00,,,0.00,LWC V2.10 B1813,2013-01-18 17:28:00,
2013-01-18 12:33:00,20.0,0.6,30.31,ENE,73,3.0,11.0,42,0.00,,,0.00,LWC V2.10 B1813,2013-01-18 17:33:00,
2013-01-18 12:38:00,20.2,0.8,30.31,North,2,4.0,9.0,42,0.00,,,0.00,LWC V2.10 B1813,2013-01-18 17:38:00,
2013-01-18 12:43:00,20.0,0.1,30.31,NW,307,5.0,5.0,41,0.00,,,0.00,LWC V2.10 B1813,2013-01-18 17:43:00,
2013-01-18 12:48:00,20.2,0.8,30.31,North,1,4.0,4.0,42,0.00,,,0.00,LWC V2.10 B1813,2013-01-18 17:48:00,
2013-01-18 12:53:00,20.4,1.0,30.31,WNW,293,7.0,7.0,42,0.00,,,0.00,LWC V2.10 B1813,2013-01-18 17:53:00,
2013-01-18 12:58:00,20.3,0.9,30.32,WNW,291,7.0,16.0,42,0.00,,,0.00,LWC V2.10 B1813,2013-01-18 17:58:00,
2013-01-18 13:03:00,20.1,-0.3,30.32,NNW,341,8.0,14.0,40,0.00,,,0.00,LWC V2.10 B1813,2013-01-18 18:03:00,
2013-01-18 13:08:00,20.2,0.8,30.32,ESE,102,4.0,10.0,42,0.00,,,0.00,LWC V2.10 B1813,2013-01-18 18:08:00,
2013-01-18 13:13:00,20.3,0.9,30.32,NNE,13,11.0,13.0,42,0.00,,,0.00,LWC V2.10 B1813,2013-01-18 18:13:00,
2013-01-18 13:18:00,20.5,0.6,30.32,North,354,4.0,9.0,41,0.00,,,0.00,LWC V2.10 B1813,2013-01-18 18:18:00,
2013-01-18 13:23:00,20.2,-0.2,30.32,NNW,342,8.0,12.0,40,0.00,,,0.00,LWC V2.10 B1813,2013-01-18 18:23:00,
2013-01-18 13:28:00,20.1,0.2,30.32,NW,306,8.0,8.0,41,0.00,,,0.00,LWC V2.10 B1813,2013-01-18 18:28:00,
2013-01-18 13:33:00,20.1,0.7,30.32,NNW,341,3.0,9.0,42,0.00,,,0.00,LWC V2.10 B1813,2013-01-18 18:33:00,
2013-01-18 13:38:00,20.1,0.2,30.33,NNE,13,5.0,9.0,41,0.00,,,0.00,LWC V2.10 B1813,2013-01-18 18:38:00,
2013-01-18 13:43:00,20.2,-0.2,30.32,NW,304,3.0,9.0,40,0.00,,,0.00,LWC V2.10 B1813,2013-01-18 18:43:00,
2013-01-18 13:48:00,20.5,0.6,30.33,WNW,283,3.0,10.0,41,0.00,,,0.00,LWC V2.10 B1813,2013-01-18 18:48:00,
2013-01-18 13:53:00,20.7,0.2,30.33,NW,317,3.0,8.0,40,0.00,,,0.00,LWC V2.10 B1813,2013-01-18 18:53:00,
2013-01-18 13:58:00,20.8,0.9,30.33,NNE,31,5.0,10.0,41,0.00,,,0.00,LWC V2.10 B1813,2013-01-18 18:58:00,
2013-01-18 14:03:00,20.7,0.2,30.34,NW,324,3.0,8.0,40,0.00,,,0.00,LWC V2.10 B1813,2013-01-18 19:03:00,
2013-01-18 14:08:00,20.9,-0.1,30.34,NNE,28,4.0,8.0,39,0.00,,,0.00,LWC V2.10 B1813,2013-01-18 19:08:00,
2013-01-18 14:13:00,20.9,0.4,30.34,WNW,291,1.0,4.0,40,0.00,,,0.00,LWC V2.10 B1813,2013-01-18 19:13:00,
2013-01-18 14:18:00,21.0,1.0,30.35,NNW,347,6.0,8.0,41,0.00,,,0.00,LWC V2.10 B1813,2013-01-18 19:18:00,
2013-01-18 14:23:00,21.2,1.7,30.35,NW,311,2.0,6.0,42,0.00,,,0.00,LWC V2.10 B1813,2013-01-18 19:23:00,
2013-01-18 14:28:00,21.1,1.1,30.35,WNW,293,1.0,5.0,41,0.00,,,0.00,LWC V2.10 B1813,2013-01-18 19:28:00,
2013-01-18 14:33:00,21.1,0.6,30.34,WNW,294,5.0,8.0,40,0.00,,,0.00,LWC V2.10 B1813,2013-01-18 19:33:00,
2013-01-18 14:38:00,21.0,1.0,30.34,West,281,2.0,15.0,41,0.00,,,0.00,LWC V2.10 B1813,2013-01-18 19:38:00,
2013-01-18 14:43:00,20.8,0.3,30.34,NW,308,3.0,9.0,40,0.00,,,0.00,LWC V2.10 B1813,2013-01-18 19:43:00,
2013-01-18 14:48:00,20.7,0.8,30.34,NNW,339,4.0,7.0,41,0.00,,,0.00,LWC V2.10 B1813,2013-01-18 19:48:00,
2013-01-18 14:53:00,20.6,1.2,30.34,NNW,343,7.0,11.0,42,0.00,,,0.00,LWC V2.10 B1813,2013-01-18 19:53:00,
2013-01-18 14:58:00,20.5,1.1,30.34,WSW,253,1.0,4.0,42,0.00,,,0.00,LWC V2.10 B1813,2013-01-18 19:58:00,
2013-01-18 15:03:00,20.6,0.7,30.34,West,273,3.0,7.0,41,0.00,,,0.00,LWC V2.10 B1813,2013-01-18 20:03:00,
2013-01-18 15:08:00,20.4,1.5,30.34,NE,44,2.0,6.0,43,0.00,,,0.00,LWC V2.10 B1813,2013-01-18 20:08:00,
2013-01-18 15:13:00,20.4,1.5,30.34,NW,318,5.0,11.0,43,0.00,,,0.00,LWC V2.10 B1813,2013-01-18 20:13:00,
2013-01-18 15:18:00,20.2,1.3,30.34,WNW,289,5.0,7.0,43,0.00,,,0.00,LWC V2.10 B1813,2013-01-18 20:18:00,
2013-01-18 15:23:00,20.1,1.2,30.34,West,265,2.0,7.0,43,0.00,,,0.00,LWC V2.10 B1813,2013-01-18 20:23:00,
2013-01-18 15:28:00,20.1,2.2,30.34,North,0,3.0,3.0,45,0.00,,,0.00,LWC V2.10 B1813,2013-01-18 20:28:00,
2013-01-18 15:33:00,20.1,1.7,30.34,NW,318,3.0,4.0,44,0.00,,,0.00,LWC V2.10 B1813,2013-01-18 20:33:00,
2013-01-18 15:38:00,20.0,1.1,30.34,NW,310,0.0,4.0,43,0.00,,,0.00,LWC V2.10 B1813,2013-01-18 20:38:00,
2013-01-18 15:43:00,19.9,1.5,30.33,West,273,0.0,4.0,44,0.00,,,0.00,LWC V2.10 B1813,2013-01-18 20:43:00,
2013-01-18 15:48:00,19.8,1.0,30.34,West,276,0.0,2.0,43,0.00,,,0.00,LWC V2.10 B1813,2013-01-18 20:48:00,
2013-01-18 15:53:00,19.7,1.8,30.34,NNW,345,7.0,9.0,45,0.00,,,0.00,LWC V2.10 B1813,2013-01-18 20:53:00,
2013-01-18 15:58:00,19.6,1.3,30.34,East,97,1.0,4.0,44,0.00,,,0.00,LWC V2.10 B1813,2013-01-18 20:58:00,
2013-01-18 16:03:00,19.4,1.6,30.34,West,276,0.0,7.0,45,0.00,,,0.00,LWC V2.10 B1813,2013-01-18 21:03:00,
2013-01-18 16:08:00,19.4,1.6,30.34,WNW,286,3.0,5.0,45,0.00,,,0.00,LWC V2.10 B1813,2013-01-18 21:08:00,
2013-01-18 16:13:00,19.4,1.6,30.35,WNW,297,4.0,9.0,45,0.00,,,0.00,LWC V2.10 B1813,2013-01-18 21:13:00,
2013-01-18 16:18:00,19.4,2.0,30.35,NW,308,2.0,3.0,46,0.00,,,0.00,LWC V2.10 B1813,2013-01-18 21:18:00,
2013-01-18 16:23:00,19.4,2.0,30.35,NW,312,3.0,3.0,46,0.00,,,0.00,LWC V2.10 B1813,2013-01-18 21:23:00,
2013-01-18 16:28:00,19.2,2.3,30.35,WNW,294,1.0,2.0,47,0.00,,,0.00,LWC V2.10 B1813,2013-01-18 21:28:00,
2013-01-18 16:33:00,19.0,2.1,30.36,West,263,2.0,2.0,47,0.00,,,0.00,LWC V2.10 B1813,2013-01-18 21:33:00,
2013-01-18 16:38:00,18.9,2.5,30.36,SSW,211,1.0,3.0,48,0.00,,,0.00,LWC V2.10 B1813,2013-01-18 21:38:00,
2013-01-18 16:43:00,18.6,2.7,30.36,WNW,294,3.0,4.0,49,0.00,,,0.00,LWC V2.10 B1813,2013-01-18 21:43:00,
2013-01-18 16:48:00,18.5,3.0,30.36,SSW,207,0.0,2.0,50,0.00,,,0.00,LWC V2.10 B1813,2013-01-18 21:48:00,
2013-01-18 16:53:00,18.3,3.2,30.36,West,259,1.0,1.0,51,0.00,,,0.00,LWC V2.10 B1813,2013-01-18 21:53:00,
2013-01-18 16:58:00,18.1,3.9,30.36,SW,220,0.0,0.0,53,0.00,,,0.00,LWC V2.10 B1813,2013-01-18 21:58:00,
2013-01-18 17:03:00,17.7,3.9,30.36,WNW,283,0.0,3.0,54,0.00,,,0.00,LWC V2.10 B1813,2013-01-18 22:03:00,
2013-01-18 17:08:00,17.1,4.5,30.36,West,268,1.0,2.0,57,0.00,,,0.00,LWC V2.10 B1813,2013-01-18 22:08:00,
2013-01-18 17:13:00,16.6,5.2,30.37,West,268,0.0,1.0,60,0.00,,,0.00,LWC V2.10 B1813,2013-01-18 22:13:00,
2013-01-18 17:18:00,16.1,5.4,30.37,WNW,292,0.0,1.0,62,0.00,,,0.00,LWC V2.10 B1813,2013-01-18 22:18:00,
2013-01-18 17:23:00,15.7,6.1,30.37,WNW,290,0.0,1.0,65,0.00,,,0.00,LWC V2.10 B1813,2013-01-18 22:23:00,
2013-01-18 17:28:00,15.4,6.4,30.38,WNW,290,1.0,1.0,67,0.00,,,0.00,LWC V2.10 B1813,2013-01-18 22:28:00,
2013-01-18 17:33:00,15.2,6.9,30.37,NW,317,0.0,0.0,69,0.00,,,0.00,LWC V2.10 B1813,2013-01-18 22:33:00,
2013-01-18 17:38:00,14.8,6.5,30.37,NW,317,0.0,1.0,69,0.00,,,0.00,LWC V2.10 B1813,2013-01-18 22:38:00,
2013-01-18 17:43:00,14.4,6.4,30.37,NW,317,0.0,0.0,70,0.00,,,0.00,LWC V2.10 B1813,2013-01-18 22:43:00,
2013-01-18 17:48:00,14.1,6.5,30.38,NW,317,0.0,0.0,71,0.00,,,0.00,LWC V2.10 B1813,2013-01-18 22:48:00,
2013-01-18 17:53:00,14.0,5.7,30.38,WSW,246,0.0,0.0,69,0.00,,,0.00,LWC V2.10 B1813,2013-01-18 22:53:00,
2013-01-18 17:58:00,14.3,6.0,30.38,South,170,0.0,1.0,69,0.00,,,0.00,LWC V2.10 B1813,2013-01-18 22:58:00,
2013-01-18 18:03:00,14.5,5.6,30.38,SSE,168,1.0,2.0,67,0.00,,,0.00,LWC V2.10 B1813,2013-01-18 23:03:00,
2013-01-18 18:08:00,14.5,6.8,30.38,West,279,0.0,0.0,71,0.00,,,0.00,LWC V2.10 B1813,2013-01-18 23:08:00,
2013-01-18 18:13:00,14.2,6.9,30.38,West,276,0.0,0.0,72,0.00,,,0.00,LWC V2.10 B1813,2013-01-18 23:13:00,
2013-01-18 18:18:00,13.9,7.2,30.39,West,269,1.0,2.0,74,0.00,,,0.00,LWC V2.10 B1813,2013-01-18 23:18:00,
2013-01-18 18:23:00,13.5,7.1,30.39,WNW,290,1.0,2.0,75,0.00,,,0.00,LWC V2.10 B1813,2013-01-18 23:23:00,
2013-01-18 18:28:00,13.3,6.9,30.39,WNW,282,1.0,2.0,75,0.00,,,0.00,LWC V2.10 B1813,2013-01-18 23:28:00,
2013-01-18 18:33:00,13.1,7.3,30.39,WNW,283,1.0,1.0,77,0.00,,,0.00,LWC V2.10 B1813,2013-01-18 23:33:00,
2013-01-18 18:38:00,12.9,7.1,30.39,WNW,282,2.0,2.0,77,0.00,,,0.00,LWC V2.10 B1813,2013-01-18 23:38:00,
2013-01-18 18:43:00,12.7,7.2,30.39,West,279,1.0,2.0,78,0.00,,,0.00,LWC V2.10 B1813,2013-01-18 23:43:00,
2013-01-18 18:48:00,12.5,7.0,30.39,West,272,1.0,2.0,78,0.00,,,0.00,LWC V2.10 B1813,2013-01-18 23:48:00,
2013-01-18 18:53:00,12.4,6.9,30.39,WNW,291,1.0,2.0,78,0.00,,,0.00,LWC V2.10 B1813,2013-01-18 23:53:00,
2013-01-18 18:58:00,12.2,6.7,30.39,West,279,0.0,1.0,78,0.00,,,0.00,LWC V2.10 B1813,2013-01-18 23:58:00,
2013-01-18 19:03:00,12.1,6.6,30.38,WNW,284,0.0,1.0,78,0.00,,,0.00,LWC V2.10 B1813,2013-01-19 00:03:00,
2013-01-18 19:08:00,11.9,6.7,30.38,WNW,284,0.0,1.0,79,0.00,,,0.00,LWC V2.10 B1813,2013-01-19 00:08:00,
2013-01-18 19:13:00,11.5,6.3,30.38,WNW,284,0.0,0.0,79,0.00,,,0.00,LWC V2.10 B1813,2013-01-19 00:13:00,
2013-01-18 19:18:00,11.0,6.1,30.39,WNW,284,0.0,0.0,80,0.00,,,0.00,LWC V2.10 B1813,2013-01-19 00:18:00,
2013-01-18 19:23:00,10.6,5.9,30.38,WNW,283,0.0,1.0,81,0.00,,,0.00,LWC V2.10 B1813,2013-01-19 00:23:00,
2013-01-18 19:28:00,10.4,6.0,30.38,WNW,283,1.0,1.0,82,0.00,,,0.00,LWC V2.10 B1813,2013-01-19 00:28:00,
2013-01-18 19:33:00,10.6,6.5,30.38,WNW,293,1.0,1.0,83,0.00,,,0.00,LWC V2.10 B1813,2013-01-19 00:33:00,
2013-01-18 19:38:00,10.6,6.5,30.38,WNW,295,0.0,1.0,83,0.00,,,0.00,LWC V2.10 B1813,2013-01-19 00:38:00,
2013-01-18 19:43:00,10.6,6.5,30.39,WNW,296,0.0,1.0,83,0.00,,,0.00,LWC V2.10 B1813,2013-01-19 00:43:00,
2013-01-18 19:48:00,10.6,6.7,30.39,WNW,293,0.0,0.0,84,0.00,,,0.00,LWC V2.10 B1813,2013-01-19 00:48:00,
2013-01-18 19:53:00,10.3,6.4,30.39,WNW,294,0.0,1.0,84,0.00,,,0.00,LWC V2.10 B1813,2013-01-19 00:53:00,
2013-01-18 19:58:00,9.9,6.1,30.40,WNW,294,0.0,1.0,84,0.00,,,0.00,LWC V2.10 B1813,2013-01-19 00:58:00,
2013-01-18 20:03:00,9.8,6.2,30.39,WNW,294,0.0,0.0,85,0.00,,,0.00,LWC V2.10 B1813,2013-01-19 01:03:00,
2013-01-18 20:08:00,9.7,6.4,30.39,WNW,294,1.0,1.0,86,0.00,,,0.00,LWC V2.10 B1813,2013-01-19 01:08:00,
2013-01-18 20:13:00,9.8,6.5,30.39,WNW,294,1.0,1.0,86,0.00,,,0.00,LWC V2.10 B1813,2013-01-19 01:13:00,
2013-01-18 20:18:00,9.9,6.3,30.39,WNW,286,1.0,1.0,85,0.00,,,0.00,LWC V2.10 B1813,2013-01-19 01:18:00,
2013-01-18 20:23:00,9.9,6.3,30.39,WNW,291,1.0,1.0,85,0.00,,,0.00,LWC V2.10 B1813,2013-01-19 01:23:00,
2013-01-18 20:28:00,10.0,6.7,30.39,WNW,291,0.0,0.0,86,0.00,,,0.00,LWC V2.10 B1813,2013-01-19 01:28:00,
2013-01-18 20:38:00,9.8,6.2,30.38,WNW,291,0.0,0.0,85,0.00,,,0.00,LWC V2.10 B1813,2013-01-19 01:38:00,
2013-01-18 20:43:00,9.5,5.7,30.39,WNW,291,0.0,0.0,84,0.00,,,0.00,LWC V2.10 B1813,2013-01-19 01:43:00,
2013-01-18 20:48:00,9.2,5.6,30.38,WNW,291,0.0,0.0,85,0.00,,,0.00,LWC V2.10 B1813,2013-01-19 01:48:00,
2013-01-18 20:53:00,8.9,5.6,30.38,WNW,291,0.0,0.0,86,0.00,,,0.00,LWC V2.10 B1813,2013-01-19 01:53:00,
2013-01-18 20:58:00,8.8,5.7,30.38,WNW,291,0.0,0.0,87,0.00,,,0.00,LWC V2.10 B1813,2013-01-19 01:58:00,
2013-01-18 21:03:00,8.9,5.8,30.38,WNW,291,0.0,1.0,87,0.00,,,0.00,LWC V2.10 B1813,2013-01-19 02:03:00,
2013-01-18 21:08:00,9.1,5.8,30.39,WNW,286,1.0,1.0,86,0.00,,,0.00,LWC V2.10 B1813,2013-01-19 02:08:00,
2013-01-18 21:13:00,9.3,6.0,30.38,WNW,293,0.0,0.0,86,0.00,,,0.00,LWC V2.10 B1813,2013-01-19 02:13:00,
2013-01-18 21:18:00,9.3,6.0,30.39,WNW,294,0.0,1.0,86,0.00,,,0.00,LWC V2.10 B1813,2013-01-19 02:18:00,
2013-01-18 21:23:00,9.3,5.7,30.39,WNW,294,1.0,1.0,85,0.00,,,0.00,LWC V2.10 B1813,2013-01-19 02:23:00,
2013-01-18 21:28:00,9.4,6.1,30.39,WNW,294,0.0,1.0,86,0.00,,,0.00,LWC V2.10 B1813,2013-01-19 02:28:00,
2013-01-18 21:33:00,9.3,5.7,30.38,WNW,293,0.0,0.0,85,0.00,,,0.00,LWC V2.10 B1813,2013-01-19 02:33:00,
2013-01-18 21:38:00,9.0,5.4,30.38,WNW,294,0.0,0.0,85,0.00,,,0.00,LWC V2.10 B1813,2013-01-19 02:38:00,
2013-01-18 21:43:00,8.6,5.3,30.38,WNW,294,0.0,0.0,86,0.00,,,0.00,LWC V2.10 B1813,2013-01-19 02:43:00,
2013-01-18 21:48:00,8.3,5.2,30.38,WNW,293,0.0,0.0,87,0.00,,,0.00,LWC V2.10 B1813,2013-01-19 02:48:00,
2013-01-18 21:53:00,8.4,5.6,30.37,WNW,294,0.0,0.0,88,0.00,,,0.00,LWC V2.10 B1813,2013-01-19 02:53:00,
2013-01-18 21:58:00,8.4,5.6,30.37,WNW,294,0.0,0.0,88,0.00,,,0.00,LWC V2.10 B1813,2013-01-19 02:58:00,
2013-01-18 22:03:00,8.5,5.7,30.37,WNW,294,0.0,0.0,88,0.00,,,0.00,LWC V2.10 B1813,2013-01-19 03:03:00,
2013-01-18 22:08:00,8.5,5.7,30.36,WNW,294,0.0,0.0,88,0.00,,,0.00,LWC V2.10 B1813,2013-01-19 03:08:00,
2013-01-18 22:13:00,8.6,5.8,30.36,WNW,294,0.0,0.0,88,0.00,,,0.00,LWC V2.10 B1813,2013-01-19 03:13:00,
2013-01-18 22:18:00,8.7,6.1,30.36,WNW,293,0.0,0.0,89,0.00,,,0.00,LWC V2.10 B1813,2013-01-19 03:18:00,
2013-01-18 22:23:00,9.0,6.4,30.36,WNW,294,0.0,0.0,89,0.00,,,0.00,LWC V2.10 B1813,2013-01-19 03:23:00,
2013-01-18 22:28:00,9.3,7.0,30.36,WNW,294,0.0,0.0,90,0.00,,,0.00,LWC V2.10 B1813,2013-01-19 03:28:00,
2013-01-18 22:33:00,9.6,7.3,30.36,WNW,294,0.0,0.0,90,0.00,,,0.00,LWC V2.10 B1813,2013-01-19 03:33:00,
2013-01-18 22:38:00,9.8,7.5,30.35,WNW,294,0.0,0.0,90,0.00,,,0.00,LWC V2.10 B1813,2013-01-19 03:38:00,
2013-01-18 22:43:00,10.1,7.5,30.35,WNW,294,0.0,0.0,89,0.00,,,0.00,LWC V2.10 B1813,2013-01-19 03:43:00,
2013-01-18 22:48:00,10.4,7.8,30.35,WNW,294,0.0,0.0,89,0.00,,,0.00,LWC V2.10 B1813,2013-01-19 03:48:00,
2013-01-18 22:53:00,10.7,8.1,30.35,WNW,294,0.0,0.0,89,0.00,,,0.00,LWC V2.10 B1813,2013-01-19 03:53:00,
2013-01-18 22:58:00,11.0,8.4,30.35,WNW,294,0.0,0.0,89,0.00,,,0.00,LWC V2.10 B1813,2013-01-19 03:58:00,
2013-01-18 23:03:00,11.3,8.7,30.34,WNW,294,0.0,0.0,89,0.00,,,0.00,LWC V2.10 B1813,2013-01-19 04:03:00,
2013-01-18 23:08:00,11.6,8.7,30.33,WNW,294,0.0,0.0,88,0.00,,,0.00,LWC V2.10 B1813,2013-01-19 04:08:00,
2013-01-18 23:13:00,11.9,8.5,30.33,WNW,294,0.0,0.0,86,0.00,,,0.00,LWC V2.10 B1813,2013-01-19 04:13:00,
2013-01-18 23:18:00,12.3,9.2,30.33,North,352,0.0,0.0,87,0.00,,,0.00,LWC V2.10 B1813,2013-01-19 04:18:00,
2013-01-18 23:23:00,12.6,9.5,30.32,North,352,0.0,0.0,87,0.00,,,0.00,LWC V2.10 B1813,2013-01-19 04:23:00,
2013-01-18 23:28:00,12.9,9.3,30.33,North,350,0.0,0.0,85,0.00,,,0.00,LWC V2.10 B1813,2013-01-19 04:28:00,
2013-01-18 23:33:00,13.1,9.2,30.32,North,352,0.0,0.0,84,0.00,,,0.00,LWC V2.10 B1813,2013-01-19 04:33:00,
2013-01-18 23:38:00,13.3,9.4,30.33,North,352,0.0,0.0,84,0.00,,,0.00,LWC V2.10 B1813,2013-01-19 04:38:00,
2013-01-18 23:43:00,13.6,9.4,30.32,North,350,0.0,0.0,83,0.00,,,0.00,LWC V2.10 B1813,2013-01-19 04:43:00,
2013-01-18 23:48:00,13.8,9.1,30.32,North,350,0.0,0.0,81,0.00,,,0.00,LWC V2.10 B1813,2013-01-19 04:48:00,
2013-01-18 23:53:00,14.1,9.4,30.32,North,350,0.0,0.0,81,0.00,,,0.00,LWC V2.10 B1813,2013-01-19 04:53:00,
2013-01-18 23:58:00,14.3,9.6,30.32,NW,314,0.0,0.0,81,0.00,,,0.00,LWC V2.10 B1813,2013-01-19 04:58:00,